Date,TemperatureHighF,TemperatureAvgF,TemperatureLowF,DewpointHighF,DewpointAvgF,DewpointLowF,HumidityHigh,HumidityAvg,HumidityLow,PressureMaxIn,PressureMinIn,WindSpeedMaxMPH,WindSpeedAvgMPH,GustSpeedMaxMPH,PrecipitationSumIn
2013-1-1,40.0,31.1,24.3,30.5,18.1,9.8,71,58,50,29.97,29.82,12,6,15,0.06
2013-1-2,25.2,23.3,20.3,12.9,12.0,10.2,70,62,55,30.02,29.96,8,6,9,0.00
2013-1-3,29.4,25.2,14.7,19.5,11.4,-1.4,68,56,40,30.17,30.03,7,4,9,0.00
2013-1-4,38.0,36.2,28.8,28.8,26.4,19.4,73,67,62,30.03,29.88,16,11,24,0.00
2013-1-5,43.7,38.0,29.0,27.4,24.8,21.7,84,60,46,30.27,29.93,10,4,17,0.00
2013-1-6,41.7,38.8,29.1,37.3,34.3,24.3,93,84,73,30.20,29.95,12,6,18,0.02
2013-1-7,44.3,38.8,30.4,32.1,26.6,22.0,83,62,48,30.41,29.99,7,2,11,0.00
2013-1-8,45.7,42.7,32.2,39.7,37.7,27.2,96,83,68,30.42,30.33,15,7,20,0.00
2013-1-9,47.1,44.0,36.4,42.7,39.9,33.9,95,85,74,30.38,30.09,14,6,22,0.00
2013-1-10,47.7,42.7,35.8,39.1,26.8,25.5,75,54,42,30.54,30.13,20,5,20,0.00
2013-1-11,39.6,36.4,31.8,34.6,30.2,27.2,83,78,75,30.50,30.38,6,2,6,0.00
2013-1-12,45.3,43.8,41.8,45.0,43.5,41.5,99,99,99,30.17,30.14,2,1,4,0.05
2013-1-13,48.1,45.7,43.1,48.1,45.7,43.1,100,100,100,30.17,30.03,3,1,7,0.02
2013-1-14,56.4,48.8,38.4,55.3,42.1,30.9,100,80,48,30.25,30.00,7,3,12,0.01
2013-1-15,41.1,39.0,36.7,33.4,31.4,28.8,87,74,69,30.31,30.22,7,2,13,0.10
2013-1-16,37.7,36.2,35.0,37.3,35.6,29.3,99,98,72,30.24,29.77,7,4,13,0.40
2013-1-17,43.9,39.5,33.9,35.2,29.1,19.8,95,66,56,30.09,29.87,8,4,13,0.00
2013-1-18,33.9,26.5,24.4,20.3,5.2,0.6,60,40,31,30.50,30.05,11,5,21,0.00
2013-1-19,46.5,44.4,40.6,39.1,36.9,33.3,83,75,66,30.28,29.94,23,14,27,0.00
2013-1-20,51.1,44.1,31.3,39.5,30.8,15.3,80,61,33,29.97,29.65,16,9,27,0.00
2013-1-21,31.1,29.2,23.7,30.0,21.8,12.0,96,75,47,30.12,29.78,8,2,9,0.00
2013-1-22,27.3,23.5,20.5,26.3,4.5,-1.6,96,45,33,29.96,29.77,15,8,26,0.00
2013-1-23,18.5,15.4,10.9,2.2,-1.6,-3.5,65,47,38,30.20,30.11,10,5,18,0.00
2013-1-24,22.0,16.6,8.5,3.0,-3.1,-6.5,65,42,30,30.30,30.12,17,10,24,0.00
2013-1-25,25.2,21.3,13.5,17.7,4.6,-1.6,91,50,35,30.36,30.04,10,3,16,0.00
2013-1-26,26.9,21.9,14.4,16.7,8.5,4.8,89,56,45,30.30,30.04,8,5,14,0.00
2013-1-27,33.8,27.9,17.8,11.2,5.1,1.4,73,38,29,30.49,30.29,11,4,14,0.00
2013-1-28,37.4,33.3,23.9,36.7,28.7,2.5,98,85,39,30.47,30.00,9,3,11,0.12
2013-1-29,40.7,37.5,33.0,38.8,35.6,32.2,98,93,82,30.20,29.99,7,3,10,0.00
2013-1-30,54.1,51.1,39.6,53.0,50.6,38.8,100,98,94,30.15,29.73,14,9,18,0.00
2013-1-31,53.2,43.3,33.7,52.7,29.1,13.3,98,58,40,29.67,29.11,27,16,32,0.16
2013-2-1,32.7,31.2,29.1,15.6,14.1,12.6,56,49,44,29.83,29.79,16,8,19,0.00
2013-2-2,31.1,28.6,24.0,23.8,18.5,12.8,89,66,55,30.29,30.07,14,9,21,0.00
2013-2-3,34.8,29.6,22.9,24.0,19.7,17.7,89,67,53,30.07,29.74,5,2,7,0.00
2013-2-4,28.0,26.6,25.2,17.9,15.9,13.8,73,64,56,29.87,29.77,10,7,14,0.00
2013-2-5,27.4,26.7,25.3,24.6,23.2,20.9,91,87,82,30.01,29.91,6,4,9,0.00
2013-2-6,40.0,34.8,28.7,31.8,20.6,3.7,90,58,33,30.31,30.02,11,6,21,0.01
2013-2-7,32.1,29.5,22.9,20.5,13.7,3.4,69,52,34,30.52,30.31,8,4,11,0.00
2013-2-8,33.3,32.6,27.8,33.0,31.5,18.4,99,96,67,30.43,29.45,13,10,19,0.00
2013-2-9,25.3,22.6,18.2,24.0,17.9,8.2,97,83,60,30.24,29.73,8,5,15,0.00
2013-2-10,33.7,27.1,15.8,24.6,16.0,6.0,89,63,42,30.43,30.24,8,4,12,0.01
2013-2-11,46.4,42.2,22.4,46.1,41.6,19.1,100,98,83,30.36,29.72,8,2,13,0.59
2013-2-12,46.1,41.2,35.0,36.4,31.8,28.0,86,69,55,29.92,29.76,13,6,17,0.00
2013-2-13,40.9,38.0,33.8,30.8,28.3,25.4,83,68,58,29.91,29.66,9,4,11,0.00
2013-2-14,41.4,38.6,34.7,34.6,32.3,28.7,89,78,63,30.02,29.72,10,5,14,0.10
2013-2-15,46.1,42.3,37.3,41.2,39.1,34.6,97,88,79,30.03,29.94,10,4,15,0.00
2013-2-16,39.0,35.0,31.4,38.2,32.3,28.3,97,90,77,29.94,29.66,9,3,12,0.01
2013-2-17,31.3,26.2,23.4,27.9,8.9,6.4,87,48,39,29.66,29.46,21,12,29,0.00
2013-2-18,33.6,29.3,19.5,16.4,7.1,2.7,54,39,28,30.20,30.06,16,8,23,0.00
2013-2-19,46.0,43.4,29.0,45.2,39.9,17.5,99,88,55,30.21,29.61,13,6,14,0.37
2013-2-20,40.9,32.1,26.2,40.6,15.9,11.2,99,51,43,29.87,29.61,13,9,26,0.00
2013-2-21,29.0,26.8,26.0,18.1,15.7,14.1,69,63,56,30.23,29.88,11,7,16,0.00
2013-2-22,39.5,34.9,27.0,28.8,24.4,18.2,72,65,61,30.38,30.22,8,5,12,0.00
2013-2-23,39.7,37.5,35.4,36.7,35.6,34.6,98,93,87,30.21,29.80,12,8,17,0.15
2013-2-24,39.8,37.5,33.7,38.1,35.9,32.5,98,94,89,29.89,29.66,10,5,17,0.05
2013-2-25,41.5,38.6,33.8,35.2,33.1,29.2,94,81,72,30.25,29.90,6,2,7,0.00
2013-2-26,41.6,39.4,34.8,36.3,34.5,31.9,91,83,74,30.33,30.24,7,5,12,0.00
2013-2-27,43.7,42.8,40.2,43.7,42.8,40.2,100,100,99,29.78,29.56,13,0,13,1.16
2013-2-28,44.7,40.9,36.9,42.7,40.5,36.9,100,99,89,29.63,29.55,5,1,7,0.00
2013-3-1,47.8,42.6,39.3,36.4,30.9,28.3,88,64,51,29.70,29.61,7,4,13,0.00
2013-3-2,39.7,38.5,36.0,32.4,29.1,27.6,78,69,65,29.71,29.64,11,4,12,0.00
2013-3-3,39.4,35.4,31.1,29.1,27.3,24.2,86,73,61,29.66,29.59,9,4,13,0.00
2013-3-4,41.3,36.0,30.1,26.7,24.8,22.2,83,64,53,29.79,29.64,14,8,26,0.00
2013-3-5,47.0,40.9,32.0,37.2,31.6,24.0,86,70,52,30.05,29.78,14,4,18,0.00
2013-3-6,42.4,39.8,36.7,37.3,35.1,32.6,90,84,73,30.02,29.88,19,15,27,0.01
2013-3-7,40.9,38.8,36.0,35.0,31.4,30.1,96,75,70,29.90,29.88,18,16,30,0.01
2013-3-8,40.1,35.3,30.7,35.1,32.0,27.6,98,89,62,30.08,29.91,15,8,20,0.10
2013-3-9,55.0,44.0,34.8,36.8,27.9,19.8,83,57,25,30.34,30.18,10,4,16,0.00
2013-3-10,41.5,38.7,31.4,36.0,34.4,29.3,92,84,76,30.40,30.33,8,4,10,0.00
2013-3-11,46.3,43.3,38.9,42.9,40.8,37.0,93,91,87,30.30,30.23,6,3,8,0.00
2013-3-12,47.6,46.8,46.0,46.0,45.1,44.2,94,94,93,30.04,30.02,6,4,8,0.00
2013-3-13,50.5,45.2,40.0,36.6,32.8,26.5,74,62,42,29.83,29.74,13,6,22,0.00
2013-3-14,35.1,32.4,29.9,26.8,17.4,13.0,80,54,42,29.88,29.77,13,8,26,0.00
2013-3-15,41.1,37.5,29.0,32.1,25.0,12.0,74,61,45,29.92,29.70,18,10,28,0.00
2013-3-16,40.1,35.8,31.8,30.0,22.7,9.3,84,61,29,29.89,29.73,10,5,13,0.00
2013-3-17,39.0,34.9,30.0,30.0,11.9,7.8,84,39,28,30.30,29.88,10,5,14,0.00
2013-3-18,32.4,29.5,24.6,19.0,8.8,5.6,59,42,35,30.44,30.30,8,5,11,0.00
2013-3-19,40.6,37.7,33.8,40.6,36.9,32.3,100,97,91,29.79,29.57,14,7,21,0.52
2013-3-20,41.9,38.5,32.9,32.8,25.7,20.6,94,61,44,29.83,29.72,18,9,23,0.00
2013-3-21,39.4,35.2,31.7,33.0,27.0,23.0,85,72,59,29.82,29.60,7,4,11,0.00
2013-3-22,41.1,37.1,27.6,27.2,21.6,15.1,77,54,40,29.79,29.65,12,8,16,0.00
2013-3-23,44.5,39.8,34.1,26.3,21.9,19.2,69,49,37,29.86,29.74,15,7,27,0.00
2013-3-24,47.6,42.3,33.9,27.3,25.1,21.0,67,51,43,29.89,29.73,8,6,16,0.00
2013-3-25,44.4,39.9,36.0,34.5,32.5,28.8,94,76,59,29.62,29.45,14,9,19,0.04
2013-3-26,46.2,41.1,36.2,35.5,28.5,22.8,91,62,47,29.81,29.51,6,2,9,0.00
2013-3-27,50.5,44.2,36.2,35.7,30.0,22.8,72,58,41,29.85,29.78,14,8,18,0.00
2013-3-28,45.3,43.5,39.6,38.8,37.0,33.0,87,78,68,30.05,29.93,8,3,11,0.00
2013-3-29,52.8,48.5,41.5,40.0,35.7,31.1,79,61,50,30.08,30.00,14,7,24,0.00
2013-3-30,55.4,49.6,42.5,36.4,30.8,21.3,68,49,27,30.11,30.04,14,7,20,0.00
2013-3-31,50.1,46.0,40.9,45.3,41.5,36.7,99,85,71,30.12,29.66,19,6,23,0.16
2013-4-1,52.4,45.9,37.1,47.3,39.1,19.5,99,78,47,29.84,29.59,14,8,18,0.01
2013-4-2,43.4,39.5,35.7,21.3,14.2,9.7,53,36,26,30.01,29.84,16,9,25,0.00
2013-4-3,46.1,40.3,33.7,19.3,15.9,12.4,55,37,26,30.23,30.01,14,9,21,0.00
2013-4-4,45.0,40.7,34.1,36.1,29.0,15.5,84,64,44,30.36,30.11,14,9,19,0.00
2013-4-5,58.0,47.5,40.6,42.1,31.7,13.3,90,59,21,30.11,29.66,13,6,18,0.00
2013-4-6,48.0,42.1,35.6,32.8,20.3,8.5,78,45,21,30.34,29.91,15,6,19,0.00
2013-4-7,49.2,46.7,38.1,45.0,40.8,32.7,93,80,61,30.33,30.05,16,10,19,0.00
2013-4-8,58.3,52.2,45.2,47.7,45.7,43.6,95,79,63,30.10,30.03,11,5,15,0.00
2013-4-9,78.4,63.1,45.2,52.9,47.4,42.9,99,62,30,30.09,29.87,14,6,19,0.01
2013-4-10,59.1,51.3,44.2,51.8,47.4,43.7,99,87,73,30.02,29.86,11,5,14,0.24
2013-4-11,45.7,45.3,45.2,41.9,41.0,38.9,88,85,77,30.11,30.06,8,6,12,0.01
2013-4-12,46.0,40.9,38.9,40.6,39.1,33.2,100,94,67,30.11,29.72,21,12,31,0.70
2013-4-13,51.1,46.2,38.7,42.7,39.9,35.7,100,79,60,29.96,29.71,12,6,16,0.01
2013-4-14,55.5,50.4,43.3,44.0,33.7,26.8,88,54,39,30.23,29.95,15,6,21,0.00
2013-4-15,48.6,46.0,41.9,42.8,39.1,27.3,97,78,53,30.41,30.22,7,3,9,0.00
2013-4-16,55.0,50.9,43.4,50.1,47.3,42.6,97,88,78,30.41,30.15,18,8,20,0.00
2013-4-17,67.0,55.2,46.8,49.8,42.5,37.5,90,65,35,30.32,30.16,7,4,11,0.01
2013-4-18,53.7,50.3,46.4,47.8,44.0,40.0,94,80,60,30.41,30.16,9,5,15,0.00
2013-4-19,59.1,54.0,49.5,58.5,53.5,48.1,100,98,94,30.15,29.91,14,9,18,0.00
2013-4-20,51.8,48.7,45.1,47.4,45.9,44.8,100,91,79,29.93,29.83,12,6,18,0.20
2013-4-21,51.5,48.5,46.0,26.3,24.4,22.9,44,39,34,30.55,30.53,5,4,9,0.00
2013-4-22,47.7,45.4,41.8,34.5,33.0,29.7,75,62,50,30.70,30.67,14,10,18,0.00
2013-4-23,47.4,45.1,42.3,44.0,42.3,39.4,94,90,87,30.40,30.01,12,9,19,0.00
2013-4-24,53.4,47.7,44.3,46.3,41.7,-99.9,90,83,77,30.02,29.96,15,-10,19,0.00
2013-4-25,62.5,54.9,47.1,42.2,37.2,30.0,78,53,31,30.25,30.10,11,6,16,0.03
2013-4-26,54.9,51.6,47.4,47.1,43.6,35.3,97,76,49,30.41,30.35,7,5,9,0.00
2013-4-27,52.7,49.0,42.8,48.0,46.0,42.3,98,89,80,30.42,30.33,8,3,12,0.00
2013-4-28,57.1,52.2,42.5,48.5,45.1,36.8,98,78,48,30.35,30.26,7,3,8,0.01
2013-4-29,55.9,54.1,48.8,49.5,47.8,45.0,97,79,71,30.29,30.26,5,3,6,0.00
2013-4-30,57.2,54.9,51.0,46.2,40.3,34.6,76,58,45,30.35,30.30,7,4,10,0.00
2013-5-1,58.2,53.4,48.0,50.2,47.4,41.7,89,80,67,30.49,30.44,8,3,10,0.00
2013-5-2,62.5,59.0,47.5,50.3,46.5,34.9,91,64,37,30.47,30.35,11,4,16,0.00
2013-5-3,63.1,54.7,49.3,48.7,45.5,40.8,93,73,53,30.48,30.36,10,5,25,0.00
2013-5-4,58.5,52.8,49.4,48.0,45.4,43.2,82,76,62,30.37,30.26,12,8,18,0.00
2013-5-5,53.6,50.7,46.9,47.8,45.7,42.6,92,83,69,30.30,30.25,10,5,14,0.00
2013-5-6,55.4,50.0,46.5,50.3,46.8,44.0,99,89,81,30.30,30.18,7,2,9,0.00
2013-5-7,58.2,55.8,48.0,56.8,54.1,47.7,99,94,87,30.20,30.14,0,0,0,0.00
2013-5-8,62.8,58.1,54.6,61.2,57.3,54.6,100,97,93,30.15,30.05,12,4,22,0.01
2013-5-9,62.4,56.8,53.8,62.4,56.7,53.8,100,100,96,30.04,29.87,6,2,10,0.40
2013-5-10,70.4,62.5,54.3,60.9,56.9,53.2,100,83,65,29.99,29.93,7,4,13,0.04
2013-5-11,63.5,59.2,57.5,60.2,58.6,57.0,100,98,87,29.85,29.72,13,4,17,0.51
2013-5-12,68.3,60.5,54.3,59.0,48.6,31.5,100,68,33,29.86,29.63,12,5,22,0.01
2013-5-13,55.3,52.9,49.5,41.1,36.1,29.3,60,53,38,30.04,29.86,13,8,20,0.00
2013-5-14,56.9,52.7,48.0,45.7,39.1,28.5,81,61,36,30.08,30.01,11,5,14,0.00
2013-5-15,58.9,56.3,50.1,52.7,49.7,44.8,89,79,68,30.09,29.86,12,7,17,0.01
2013-5-16,61.1,59.1,54.5,56.9,55.8,53.7,97,89,85,29.78,29.76,4,3,9,0.00
2013-5-17,69.5,63.8,56.6,50.8,47.2,43.5,80,55,42,30.15,30.01,9,5,15,0.00
2013-5-18,65.6,60.0,54.5,54.6,52.9,49.8,90,78,63,30.32,30.28,10,5,13,0.00
2013-5-19,55.9,55.1,54.3,55.9,55.0,51.7,100,100,91,30.32,30.23,9,4,9,0.24
2013-5-20,70.2,63.0,56.0,66.0,61.3,56.0,100,95,84,30.22,29.96,11,5,12,0.06
2013-5-21,74.4,66.5,57.9,68.6,63.6,57.3,100,91,76,29.96,29.86,8,4,10,0.01
2013-5-22,65.4,60.6,55.7,62.1,59.0,55.1,99,95,86,29.95,29.89,5,2,6,0.00
2013-5-23,68.7,63.0,58.2,66.2,62.2,57.9,100,97,89,29.95,29.84,15,6,18,0.27
2013-5-24,60.9,57.4,49.8,60.7,54.1,48.1,100,89,80,29.83,29.73,8,4,12,0.24
2013-5-25,52.4,48.2,44.7,49.1,45.4,41.0,98,90,85,29.83,29.75,9,6,23,0.04
2013-5-26,60.4,55.1,44.9,48.3,44.2,41.1,87,67,53,30.16,29.82,13,6,24,0.01
2013-5-27,65.2,59.7,49.5,51.3,48.9,44.0,82,68,52,30.20,30.11,11,6,19,0.00
2013-5-28,65.0,59.9,54.3,57.4,54.1,47.9,99,82,60,30.24,30.17,12,3,12,0.02
2013-5-29,70.0,63.0,57.0,65.7,60.8,56.4,98,93,84,30.18,30.02,7,2,9,0.13
2013-5-30,81.5,74.2,65.4,69.9,66.7,63.3,94,78,66,30.11,30.05,6,3,10,0.00
2013-5-31,82.1,74.9,68.7,71.1,66.4,63.5,85,75,64,30.11,30.00,9,4,14,0.00
2013-6-1,68.4,67.8,67.3,65.2,64.3,63.7,92,89,86,30.02,30.02,2,2,3,0.00
2013-6-2,69.3,66.4,65.5,66.2,64.0,63.1,93,92,89,29.90,29.84,11,6,14,0.00
2013-6-3,65.7,64.4,63.4,64.7,63.6,62.9,100,97,93,29.85,29.81,9,5,13,0.09
2013-6-4,62.8,62.5,62.1,45.6,45.4,45.2,54,54,53,29.95,29.95,7,6,8,0.00
2013-6-5,66.6,62.9,57.7,56.2,53.4,47.6,92,72,52,30.20,30.14,8,4,12,0.00
2013-6-6,66.6,62.2,57.3,61.6,58.6,54.7,96,88,79,30.19,30.07,5,3,11,0.00
2013-6-7,60.5,60.1,59.5,59.2,58.5,58.1,99,94,92,30.07,29.99,6,4,13,0.00
2013-6-8,71.0,65.4,55.9,65.5,61.6,55.8,100,88,78,29.96,29.67,11,6,20,0.46
2013-6-9,72.6,68.4,66.2,62.8,62.1,60.8,87,81,70,30.18,30.12,5,2,8,0.00
2013-6-10,67.4,61.2,59.5,62.9,60.1,59.3,100,96,84,30.18,29.93,10,5,20,1.78
2013-6-11,64.6,62.8,60.0,64.6,62.8,60.0,100,100,100,29.93,29.72,5,3,6,0.54
2013-6-12,72.7,68.4,61.6,57.9,55.9,54.1,79,65,54,29.83,29.67,11,5,18,0.00
2013-6-13,61.8,59.1,55.8,58.1,56.7,54.0,98,92,76,29.83,29.53,11,5,18,0.70
2013-6-14,68.4,62.0,53.9,58.6,55.6,52.0,100,80,63,29.81,29.53,11,4,15,0.65
2013-6-15,76.3,70.3,60.3,60.5,55.8,47.0,92,61,37,29.96,29.81,8,4,15,0.00
2013-6-16,68.8,67.3,63.0,64.8,63.7,57.3,93,88,68,29.97,29.76,7,4,12,0.00
2013-6-17,78.5,72.3,65.3,69.3,66.3,61.6,94,82,69,29.93,29.82,10,4,13,0.02
2013-6-18,74.6,67.7,59.8,67.3,63.8,58.9,97,88,72,29.92,29.84,6,2,10,0.11
2013-6-19,75.1,67.2,59.8,61.1,58.8,51.6,97,76,44,30.15,29.87,8,4,10,0.01
2013-6-20,74.7,68.0,60.7,62.3,57.6,53.0,95,70,49,30.28,30.15,8,5,10,0.00
2013-6-21,74.2,67.3,61.4,64.7,59.5,56.7,93,77,59,30.30,30.24,9,5,15,0.00
2013-6-22,74.5,69.3,64.0,65.2,62.6,58.2,99,80,63,30.27,30.16,8,4,11,0.00
2013-6-23,78.9,73.7,68.4,71.0,68.5,65.0,99,84,73,30.18,30.08,11,6,17,0.00
2013-6-24,84.8,77.5,68.5,74.2,71.9,66.8,100,83,69,30.08,29.92,8,4,12,0.00
2013-6-25,82.4,76.6,69.9,72.4,70.2,66.8,91,81,70,29.96,29.76,11,5,13,0.00
2013-6-26,80.0,75.4,70.3,72.0,70.1,67.8,95,84,74,29.84,29.78,8,3,15,0.02
2013-6-27,73.6,69.6,66.8,71.5,68.3,65.8,100,96,90,29.82,29.75,6,3,13,0.00
2013-6-28,74.9,70.3,68.1,72.4,69.6,68.1,100,98,90,29.58,29.53,12,5,13,0.18
2013-6-29,75.2,70.9,67.1,71.6,69.5,67.1,100,96,84,29.74,29.56,9,5,14,0.01
2013-6-30,70.0,69.3,68.5,69.8,69.1,68.5,100,99,97,29.94,29.84,10,4,12,0.25
2013-7-1,68.5,68.5,68.5,68.5,68.5,68.5,100,100,100,30.00,29.99,5,4,5,0.00
2013-7-2,76.7,72.8,69.6,74.6,71.8,69.0,100,96,88,30.21,30.14,9,4,12,0.00
2013-7-3,80.6,76.8,71.0,75.3,73.3,70.7,99,89,81,30.25,30.19,10,6,14,0.00
2013-7-4,83.4,77.8,73.6,77.3,74.5,71.9,98,90,80,30.25,30.16,9,5,13,0.00
2013-7-5,85.2,78.9,73.6,76.8,74.4,72.2,96,86,73,30.20,30.10,9,5,15,0.00
2013-7-6,85.9,81.1,74.2,76.7,75.1,72.5,95,83,68,30.11,30.00,9,6,15,0.00
2013-7-7,80.9,80.3,79.6,76.1,75.8,74.9,87,86,85,30.04,30.03,5,3,8,0.00
2013-7-8,84.0,77.7,72.6,74.2,72.4,70.6,94,84,67,30.04,29.97,9,6,15,0.00
2013-7-9,73.0,72.7,72.3,71.5,71.2,70.8,96,95,95,30.03,30.02,2,1,3,0.00